Suula — OJKZ — position and weather

sailwx.info

Track history (hours):
 
Tides and Currents Weather Stations Pressure Air Temp Water Temp Dewpoint Dewpoint Depression Visibility Wind Speed Wind Dir Waves Ship Positions

Suula

Last reported at 2014-Oct-30 21:28 UTC. Time now 2014-Oct-30 23:42 UTC.
Position N 59°46' E 024°49'.

Length 140 m; draft 6.5 m.

Type: Tanker. MMSI: 230956996.

Date/timePositionNaut miles runAvg speedWind from/ knotsBaromVisibWave heightAir tempDewpointWater temp
2014-Oct-30 21:28N 59°46' E 024°49'1212.2
2014-Oct-30 20:30N 59°44' E 024°26'1412.5
2014-Oct-30 19:24N 59°40' E 023°60'1112.7
2014-Oct-30 18:32N 59°36' E 023°39'15 0.8
2014-Oct-30 00:03N 59°37' E 023°10'714.2
2014-Oct-29 23:33N 59°39' E 023°24'1414.3
2014-Oct-29 22:33N 59°43' E 023°51'1514.2
2014-Oct-29 21:29N 59°47' E 024°20'48 3.0
2014-Oct-29 05:32N 60°19' E 025°33'0 0.0
2014-Oct-29 04:32N 60°19' E 025°33'0 0.0
2014-Oct-29 03:11N 60°19' E 025°33'0 0.0
2014-Oct-29 02:05N 60°19' E 025°33'  
2014-Oct-26 02:04N 59°47' E 024°49'712.9
2014-Oct-26 01:33N 59°45' E 024°36'1912.8
2014-Oct-26 00:03N 59°40' E 023°59'712.9
2014-Oct-25 23:32N 59°38' E 023°47'1413.2
2014-Oct-25 22:29N 59°34' E 023°21'5912.1
2014-Oct-25 17:34N 59°28' E 021°24'7 0.1
2014-Oct-23 14:18N 59°32' E 021°14'1013.9
2014-Oct-23 13:33N 59°31' E 021°34'5614.0
2014-Oct-23 09:32N 59°40' E 023°24'1414.0
2014-Oct-23 08:33N 59°43' E 023°50'1413.9
2014-Oct-23 07:32N 59°47' E 024°17'21 0.5
2014-Oct-21 15:17N 59°48' E 024°59'811.5
2014-Oct-21 14:33N 59°46' E 024°43'1111.4
2014-Oct-21 13:33N 59°43' E 024°21'1211.4
2014-Oct-21 12:32N 59°40' E 023°59'1111.4
2014-Oct-21 11:33N 59°36' E 023°38'5810.7
2014-Oct-21 06:11N 59°31' E 021°45'711.5
2014-Oct-21 05:33N 59°34' E 021°32'1010.4
2014-Oct-21 04:33N 59°43' E 021°21'1313.2
2014-Oct-21 03:33N 59°54' E 021°35'  
Track history (hours):
 
Tides and Currents Weather Stations Pressure Air Temp Water Temp Dewpoint Dewpoint Depression Visibility Wind Speed Wind Dir Waves Ship Positions

Suula

Last reported at 2014-Oct-30 21:28 UTC. Time now 2014-Oct-30 23:42 UTC.
Position N 59°46' E 024°49'.

Length 140 m; draft 6.5 m.

Type: Tanker. MMSI: 230956996.

Date/timePositionNaut miles runAvg speedWind from/ knotsBaromVisibWave heightAir tempDewpointWater temp
2014-Oct-30 21:28N 59°46' E 024°49'1212.2
2014-Oct-30 20:30N 59°44' E 024°26'1412.5
2014-Oct-30 19:24N 59°40' E 023°60'1112.7
2014-Oct-30 18:32N 59°36' E 023°39'15 0.8
2014-Oct-30 00:03N 59°37' E 023°10'714.2
2014-Oct-29 23:33N 59°39' E 023°24'1414.3
2014-Oct-29 22:33N 59°43' E 023°51'1514.2
2014-Oct-29 21:29N 59°47' E 024°20'48 3.0
2014-Oct-29 05:32N 60°19' E 025°33'0 0.0
2014-Oct-29 04:32N 60°19' E 025°33'0 0.0
2014-Oct-29 03:11N 60°19' E 025°33'0 0.0
2014-Oct-29 02:05N 60°19' E 025°33'  
2014-Oct-26 02:04N 59°47' E 024°49'712.9
2014-Oct-26 01:33N 59°45' E 024°36'1912.8
2014-Oct-26 00:03N 59°40' E 023°59'712.9
2014-Oct-25 23:32N 59°38' E 023°47'1413.2
2014-Oct-25 22:29N 59°34' E 023°21'5912.1
2014-Oct-25 17:34N 59°28' E 021°24'7 0.1
2014-Oct-23 14:18N 59°32' E 021°14'1013.9
2014-Oct-23 13:33N 59°31' E 021°34'5614.0
2014-Oct-23 09:32N 59°40' E 023°24'1414.0
2014-Oct-23 08:33N 59°43' E 023°50'1413.9
2014-Oct-23 07:32N 59°47' E 024°17'21 0.5
2014-Oct-21 15:17N 59°48' E 024°59'811.5
2014-Oct-21 14:33N 59°46' E 024°43'1111.4
2014-Oct-21 13:33N 59°43' E 024°21'1211.4
2014-Oct-21 12:32N 59°40' E 023°59'1111.4
2014-Oct-21 11:33N 59°36' E 023°38'5810.7
2014-Oct-21 06:11N 59°31' E 021°45'711.5
2014-Oct-21 05:33N 59°34' E 021°32'1010.4
2014-Oct-21 04:33N 59°43' E 021°21'1313.2
2014-Oct-21 03:33N 59°54' E 021°35'  

Dump ship's entire track history